EHI
6 6 4 3 4 5 4 3 1 0 0 0 0 0 0 0 0 0 0 0 0 0 0 0 0 0 0 0 0 0 0 0 0 0 0 0 0 0 0 0 0 0 0
6 6 5 5 6 6 6 4 2 1 1 0 0 0 0 0 0 0 0 0 0 0 0 0 0 0 0 0 0 0 0 0 0 0 0 0 0 0 0 0 0 0 0
8 7 7 7 7 7 6 6 4 3 2 1 1 1 0 0 0 0 0 0 0 0 0 0 0 0 0 0 0 0 0 0 0 0 0 0 0 0 0 0 0 0 0
12 11 10 8 7 6 6 6 6 5 3 2 2 2 1 0 0 0 0 0 0 0 0 0 0 0 0 0 0 0 0 0 0 0 0 0 0 0 0 0 0 0 0
13 14 12 9 7 6 6 6 6 5 2 1 2 2 1 0 0 0 0 0 0 0 0 0 1 1 1 0 0 0 0 0 0 0 0 0 0 0 0 0 0 0 0
10 11 12 10 9 7 5 5 5 4 1 0 1 1 0 0 0 0 0 0 0 0 0 0 1 2 2 1 0 0 0 0 0 0 0 0 0 0 0 0 0 0 0
7 8 10 11 10 7 5 5 6 5 1 0 0 0 0 0 0 0 0 0 0 0 0 0 1 3 3 2 1 0 0 0 0 0 0 0 0 0 0 0 0 0 0
6 7 9 11 10 6 6 7 9 6 2 0 1 1 0 0 0 0 0 0 0 0 0 0 1 3 3 3 1 1 1 0 0 0 0 0 0 0 0 1 0 0 0
5 7 8 8 8 7 7 9 10 8 5 3 3 2 1 1 0 0 0 0 0 0 0 1 2 3 3 2 2 2 1 0 0 0 0 0 0 0 0 0 0 0 0
4 7 7 6 6 6 8 9 9 8 7 6 5 4 3 2 1 1 0 0 0 0 0 1 2 2 2 1 1 1 1 0 0 0 0 0 0 0 0 0 0 0 0
4 7 8 5 5 6 8 10 10 9 8 7 6 5 4 3 3 2 1 1 1 0 0 0 1 1 1 0 0 1 2 1 1 0 0 0 0 0 0 0 0 0 0
4 7 8 7 6 7 9 11 12 11 8 7 7 6 5 4 3 3 3 2 2 1 1 1 1 1 2 2 1 2 3 3 2 1 0 0 0 0 1 1 1 1 0
6 8 8 7 8 9 11 12 12 11 10 8 8 8 7 4 3 3 3 3 3 3 3 3 2 3 4 4 3 3 3 3 3 2 1 1 2 2 2 2 2 2 1
9 9 9 9 10 12 13 13 12 11 10 11 11 10 8 5 3 3 3 4 5 5 5 4 3 3 4 4 3 3 3 3 3 3 2 2 2 2 2 2 2 2 2
10 10 11 11 13 14 14 13 12 12 12 12 12 11 7 5 4 4 4 6 7 7 6 4 3 3 3 3 2 2 3 3 3 2 2 1 1 1 1 0 1 1 1
10 11 13 13 13 13 13 13 13 13 12 12 12 10 8 6 5 5 6 8 9 8 6 4 3 3 3 1 1 1 1 2 2 2 2 1 0 0 0 0 0 0 1
9 10 12 13 12 11 12 12 13 13 13 12 11 10 9 8 6 5 6 8 9 9 6 4 3 2 2 1 0 0 0 1 1 1 1 0 0 0 0 0 0 0 1
8 9 10 11 11 10 10 11 12 12 11 10 10 10 10 9 8 7 7 7 8 7 6 4 2 1 1 0 0 0 0 0 0 0 0 0 0 0 0 0 0 0 0
7 7 8 8 8 9 9 10 10 11 9 8 7 8 9 9 9 8 7 7 7 7 6 5 4 2 1 0 0 0 0 0 0 0 0 0 0 0 0 0 0 0 0
5 6 6 6 7 8 9 10 10 10 8 6 5 6 8 9 9 8 8 8 9 8 7 6 6 5 3 1 0 0 0 0 0 0 0 0 0 0 0 0 0 0 0
4 4 6 6 6 7 9 10 10 10 8 6 6 7 7 7 8 8 7 8 9 9 8 7 7 7 5 3 1 0 0 0 0 0 0 0 0 0 0 0 0 0 0
3 4 6 7 7 8 9 9 10 9 8 7 7 8 7 6 6 7 7 7 7 8 8 8 8 8 7 5 2 0 0 0 0 0 0 0 0 0 0 0 0 0 0
2 3 5 7 8 7 7 7 8 8 8 7 7 7 6 4 4 4 5 5 6 6 6 6 7 8 9 7 4 1 0 0 0 0 0 0 0 0 0 0 0 0 0
1 2 5 7 7 5 4 5 6 6 7 6 5 4 4 3 3 3 3 4 4 4 4 4 4 6 8 8 7 4 2 1 1 1 0 0 0 0 0 0 0 0 0
0 1 3 5 6 4 4 4 4 5 6 5 4 3 3 3 3 3 3 3 3 3 3 3 3 4 6 7 7 5 3 2 2 2 1 1 1 1 1 1 1 0 0
0 0 2 4 5 5 4 4 4 5 6 5 4 3 3 3 3 3 3 3 3 3 2 2 3 4 4 4 4 3 2 3 3 3 2 2 2 2 2 2 2 1 0
Wind_Speed
3 3 4 4 4 4 4 4 3 3 3 2 1 1 1 0 0 1 1 1 1 0 1 0 0 0 1 1 1 1 1 0 0 1 1 1 0 1 1 1 1 1 2
2 3 4 4 4 4 4 3 3 3 3 2 2 2 1 1 1 1 1 1 1 1 1 1 1 0 0 0 1 1 1 0 1 1 0 1 2 2 1 0 1 1 1
6 5 5 5 5 5 5 4 4 3 3 2 2 1 1 1 1 1 1 1 1 1 1 1 1 1 1 1 2 2 2 2 1 1 2 2 2 1 1 1 0 0 0
5 5 6 5 5 5 4 4 4 3 3 3 3 3 2 2 2 1 1 1 1 2 1 1 1 1 1 2 2 2 2 2 2 1 1 2 2 1 1 1 1 1 1
6 6 7 6 5 5 4 3 3 3 2 3 4 3 2 2 1 1 1 1 1 2 1 1 1 1 1 2 2 1 2 2 2 2 2 2 1 2 2 2 2 1 1
5 5 5 4 4 4 3 3 3 3 3 3 4 4 4 3 2 2 1 1 1 1 2 1 1 1 1 2 2 2 2 2 3 2 2 2 2 3 3 3 2 2 2
4 5 5 5 5 5 4 4 4 4 3 4 4 4 4 4 4 3 3 2 2 2 2 2 1 2 2 2 2 2 2 2 3 3 2 2 3 2 2 2 2 2 1
4 4 5 5 5 5 4 4 4 4 3 4 4 3 4 3 3 3 3 3 3 3 2 2 1 2 2 1 1 1 2 1 2 2 2 2 2 2 3 3 2 1 1
3 4 4 4 4 4 4 4 4 4 4 4 3 3 3 3 3 3 2 2 2 2 2 1 1 1 1 1 1 1 2 1 2 2 2 2 2 2 2 2 3 3 2
3 3 4 4 4 4 3 3 3 4 3 3 4 3 3 3 3 2 2 2 2 2 1 1 1 1 2 1 1 1 1 1 2 2 2 2 2 1 2 2 2 3 3
4 4 4 4 3 2 3 3 2 2 2 3 3 2 2 2 2 2 2 2 2 2 2 2 2 1 1 1 1 2 2 2 2 2 1 2 2 1 1 1 1 2 2
3 3 3 3 3 3 2 3 2 2 2 2 2 2 1 1 1 1 1 1 1 1 1 1 1 1 1 1 1 2 2 2 2 2 2 2 2 2 2 1 2 2 2
1 2 2 3 3 3 3 3 2 2 2 1 1 1 1 2 2 2 1 1 1 1 1 0 1 1 2 2 2 2 2 2 2 2 2 3 2 2 2 2 2 2 1
2 2 2 2 3 3 3 3 2 2 2 1 2 2 2 2 2 2 1 1 1 1 1 1 1 2 2 2 2 2 2 2 2 2 3 3 3 3 3 2 2 2 2
1 1 2 2 3 3 2 2 2 2 2 2 2 2 2 1 1 1 1 1 1 2 1 1 1 2 1 1 1 1 1 1 2 2 3 3 3 4 3 2 3 3 2
1 0 0 1 2 3 3 2 2 2 2 2 2 2 1 1 1 1 1 1 1 1 1 1 1 1 2 2 2 1 1 1 1 2 3 3 3 3 3 3 4 4 4
1 1 2 2 2 2 3 4 3 2 2 2 2 1 1 1 1 1 0 1 1 1 1 1 1 2 2 2 2 1 1 1 1 2 2 2 2 2 1 2 3 3 4
1 1 1 1 1 1 2 2 3 3 3 2 1 1 1 1 1 1 1 1 1 1 1 2 2 2 3 3 2 2 0 1 1 2 2 2 2 2 2 2 2 2 3
1 1 1 0 0 1 1 2 2 2 2 2 2 2 2 2 1 1 2 1 1 1 2 2 2 2 3 3 2 1 1 1 2 2 1 2 2 3 3 3 2 2 2
0 0 1 1 1 0 1 2 2 1 2 2 2 2 2 2 2 2 2 1 1 2 2 2 2 3 3 3 2 1 1 1 1 2 2 1 1 1 3 3 3 3 2
1 1 1 1 1 1 2 2 2 2 3 2 1 1 1 1 1 1 1 1 1 1 1 2 2 2 3 3 2 1 1 2 2 1 2 2 1 1 2 2 2 3 2
1 1 1 0 0 1 2 2 2 2 1 1 1 1 1 1 0 1 1 1 1 1 2 2 2 2 2 2 2 1 2 2 2 2 2 1 1 1 1 2 2 2 2
1 1 1 0 1 1 2 2 2 1 1 1 1 1 0 0 0 1 0 1 1 1 1 1 2 2 2 2 2 1 2 2 2 1 1 1 0 0 1 1 2 2 2
1 1 1 1 1 2 1 2 1 2 1 1 1 1 1 0 0 0 0 1 1 1 1 1 2 2 2 2 1 1 1 1 1 1 0 0 1 1 1 1 1 1 1
1 1 2 2 3 2 2 2 2 2 2 1 1 1 1 1 1 1 1 2 3 3 3 2 2 2 3 3 3 1 1 1 1 0 1 1 1 1 1 1 1 0 1
1 1 1 2 3 2 2 2 2 3 3 2 1 1 1 1 1 1 2 3 2 2 3 4 3 3 4 3 2 2 1 1 1 2 1 0 0 0 0 0 1 0 0
Wind_Direction
207 189 180 174 169 167 167 172 170 165 149 145 154 152 187 196 210 239 234 235 252 234 175 240 52 132 180 223 207 159 143 159 159 94 357 342 294 256 253 238 230 231 229
191 186 180 175 173 178 184 176 180 179 174 175 169 164 162 184 193 246 274 256 244 247 219 201 213 179 171 279 235 165 148 173 150 149 107 338 335 338 340 229 217 249 222
197 194 188 188 182 187 189 186 183 182 181 164 130 102 70 36 3 299 282 271 252 243 240 214 201 205 188 215 228 193 180 194 219 176 164 168 235 298 317 289 250 251 219
199 195 194 193 193 196 187 181 173 173 176 156 150 160 173 199 224 224 247 282 265 256 242 228 219 223 212 221 235 213 195 182 217 219 211 202 182 190 285 315 295 271 250
203 198 198 195 190 183 177 180 166 173 180 175 175 178 194 207 213 207 248 274 286 279 267 236 228 241 238 237 242 227 206 201 211 210 199 200 207 201 199 261 299 311 277
203 197 193 176 172 169 166 167 168 193 195 189 189 189 194 197 198 220 233 261 278 283 277 253 246 251 250 247 243 234 221 228 227 223 216 204 200 200 195 219 251 274 280
190 184 177 175 178 179 180 180 178 199 203 199 204 203 202 197 203 215 221 232 254 262 268 263 253 253 251 247 241 239 241 237 227 224 230 223 222 201 189 188 217 252 289
183 181 182 179 185 187 186 189 189 200 204 207 214 210 201 202 213 217 217 222 233 243 251 244 244 252 255 260 244 246 257 249 235 228 220 225 227 211 199 189 179 219 274
178 180 176 174 179 185 190 192 191 198 205 209 212 210 205 205 213 219 215 227 239 243 239 237 247 262 267 264 242 256 274 263 245 234 226 225 227 210 217 202 190 187 224
179 179 179 181 183 187 184 176 177 195 206 208 213 217 213 210 207 202 215 229 240 246 234 246 254 263 267 264 246 256 257 241 250 239 229 242 242 225 207 204 208 203 204
188 188 186 183 177 170 173 181 181 189 205 209 207 212 210 207 205 215 227 234 241 231 228 241 251 257 261 259 251 258 244 241 258 261 237 247 244 232 223 209 205 201 195
193 182 172 165 168 178 182 189 185 190 210 207 186 200 201 195 210 229 236 234 248 250 233 224 237 254 261 255 243 256 260 242 254 265 265 265 253 238 230 210 210 209 204
173 155 160 172 181 189 195 199 196 203 202 184 171 181 204 206 216 227 227 216 238 263 261 228 239 260 269 260 247 239 244 243 244 246 246 253 242 241 231 218 217 209 202
166 168 185 187 188 194 198 198 205 201 181 173 180 199 220 220 216 214 214 216 215 232 255 260 256 263 270 267 260 255 247 251 253 249 247 245 236 236 227 217 209 187 174
126 176 206 211 195 191 200 203 199 186 177 173 200 226 234 223 211 204 211 219 222 233 232 247 270 275 265 269 281 265 251 262 277 274 262 251 243 237 225 217 197 178 178
202 192 198 214 209 196 191 193 188 185 168 176 208 229 224 195 224 227 221 231 242 247 228 243 260 274 281 307 303 281 259 257 262 281 285 271 255 240 221 213 200 186 185
212 198 220 221 217 205 190 187 188 168 161 173 188 194 200 215 251 258 324 269 264 258 257 255 252 267 290 310 316 307 219 239 258 265 280 281 271 243 214 212 215 216 214
214 230 292 332 308 202 175 162 153 156 164 177 200 202 202 230 246 262 253 260 285 268 249 256 248 255 279 298 307 312 229 251 266 266 262 261 264 237 196 197 207 223 231
225 223 198 202 56 53 115 132 144 157 164 199 216 217 209 223 240 261 273 257 247 278 279 270 256 259 280 291 297 327 247 271 283 281 280 264 245 237 198 189 203 239 265
110 89 78 74 65 27 113 138 156 163 203 221 230 227 210 213 235 252 268 259 232 252 268 283 270 260 270 289 294 291 212 248 273 290 292 281 234 226 194 192 195 220 251
183 130 107 113 191 165 151 154 170 217 232 216 192 220 225 209 218 239 267 274 262 270 270 279 287 281 277 287 297 277 193 218 229 254 285 288 266 220 199 191 202 211 188
163 142 121 318 270 164 164 168 220 241 211 172 167 198 219 231 211 220 276 255 215 243 270 289 306 302 296 288 297 265 213 206 205 230 254 276 267 229 192 189 184 162 139
184 179 160 312 320 251 183 188 227 212 172 155 191 198 100 42 59 152 287 317 292 253 267 272 283 297 303 301 304 275 210 205 206 236 236 249 229 193 146 129 132 137 134
216 185 160 181 256 264 237 212 206 169 162 172 179 145 130 89 15 5 229 248 266 266 268 264 272 286 295 297 310 298 252 228 226 275 297 114 112 106 94 72 75 108 140
220 186 196 213 238 241 233 223 189 160 166 175 166 169 178 188 288 298 256 237 238 224 222 235 233 238 266 271 255 218 231 231 231 182 79 64 59 61 46 36 29 87 119
223 218 233 236 247 232 228 226 189 168 168 185 189 193 211 219 239 277 321 320 282 261 236 231 228 244 250 269 259 228 197 156 120 117 104 86 281 253 240 269 303 292 229